AFR6720 LFPG-MMSM

Flight info

Callsign AFR6720
Flight time N/A
Altitude 26000
Route ATREX DCT TLA DCT BALIX/M078F260 DCT 6230N02000W 64N030W 64N040W 63N050W DCT NIFTY DCT PEPKI/N0454F260 DCT 5330N07000W 46N080W DCT NOSIK DCT FWA DCT VHP DCT PXV DCT MHZ DCT LSU DCT WAHOO M345 AXEXO UM345 PAZ UT154 LONBU UT169 VITOS VITOS2A
Aircraft B77L/H-SDE2E3FGHIJ3J5J6M1M2P2RWXYZ/LD1B1

Departure

Time 2026-05-05 23:40
Airport Charles de Gaulle International Airport (LFPG)

Arrival

Time N/A
Airport Felipe Ángeles International Airport (MMSM)
Time Latitude Longitude Altitude Speed Heading
2026-05-05 22:43 49.00018 2.54396 331 ft 0 kts 356°
2026-05-05 23:24 49.00017 2.54397 359 ft 2 kts 356°
2026-05-05 23:24 48.99993 2.54399 359 ft 4 kts 355°
2026-05-05 23:24 48.99966 2.54402 362 ft 4 kts 359°
2026-05-05 23:24 48.99939 2.54401 364 ft 4 kts
2026-05-05 23:25 48.99918 2.54398 360 ft 0 kts
2026-05-05 23:30 48.99929 2.54400 363 ft 0 kts
2026-05-05 23:30 48.99930 2.54400 363 ft 1 kts
2026-05-05 23:30 48.99938 2.54427 366 ft 5 kts 85°
2026-05-05 23:31 48.99935 2.54497 359 ft 7 kts 89°
2026-05-05 23:31 48.99939 2.54576 359 ft 10 kts 86°
2026-05-05 23:31 48.99945 2.54737 367 ft 18 kts 86°
2026-05-05 23:31 48.99956 2.54928 360 ft 18 kts 85°
2026-05-05 23:32 48.99967 2.55118 359 ft 15 kts 85°
2026-05-05 23:32 48.99932 2.55182 363 ft 9 kts 160°
2026-05-05 23:32 48.99876 2.55211 363 ft 9 kts 161°
2026-05-05 23:32 48.99819 2.55241 364 ft 9 kts 161°
2026-05-05 23:33 48.99763 2.55271 363 ft 9 kts 158°
2026-05-05 23:33 48.99733 2.55344 364 ft 9 kts 94°
2026-05-05 23:33 48.99737 2.55434 358 ft 9 kts 85°
2026-05-05 23:33 48.99741 2.55525 358 ft 9 kts 87°
2026-05-05 23:34 48.99745 2.55615 361 ft 9 kts 86°
2026-05-05 23:34 48.99749 2.55707 358 ft 9 kts 86°
2026-05-05 23:34 48.99737 2.55792 363 ft 9 kts 130°
2026-05-05 23:34 48.99714 2.55811 366 ft 0 kts 162°
2026-05-05 23:35 48.99709 2.55811 366 ft 3 kts 174°
2026-05-05 23:35 48.99689 2.55813 364 ft 3 kts 178°
2026-05-05 23:35 48.99669 2.55813 365 ft 3 kts 179°
2026-05-05 23:35 48.99649 2.55814 365 ft 3 kts 177°
2026-05-05 23:36 48.99627 2.55816 364 ft 3 kts 176°
2026-05-05 23:36 48.99612 2.55824 362 ft 2 kts 146°
2026-05-05 23:36 48.99604 2.55848 364 ft 4 kts 106°
2026-05-05 23:36 48.99604 2.55905 361 ft 0 kts 86°
2026-05-05 23:39 48.99605 2.55915 358 ft 6 kts 86°
2026-05-05 23:39 48.99620 2.56206 361 ft 60 kts 85°
2026-05-05 23:39 48.99672 2.57220 365 ft 130 kts 85°
2026-05-05 23:39 48.99762 2.58897 363 ft 189 kts 85°
2026-05-05 23:40 48.99847 2.60925 929 ft 191 kts 82°
2026-05-05 23:40 48.99944 2.62958 1636 ft 191 kts 80°
2026-05-05 23:40 49.00054 2.65054 1857 ft 208 kts 80°
2026-05-05 23:40 49.00182 2.67312 2082 ft 219 kts 81°
2026-05-05 23:41 49.00307 2.69657 2298 ft 234 kts 82°
2026-05-05 23:41 49.00440 2.72193 2604 ft 248 kts 82°
2026-05-05 23:41 49.00576 2.74861 3103 ft 255 kts 82°
2026-05-05 23:41 49.00725 2.77585 3628 ft 262 kts 83°
2026-05-05 23:42 49.00882 2.80402 4127 ft 270 kts 83°
2026-05-05 23:42 49.01042 2.83272 4642 ft 271 kts 79°
2026-05-05 23:42 49.01732 2.85938 4882 ft 281 kts 47°
2026-05-05 23:42 49.03277 2.87633 5541 ft 273 kts 17°
2026-05-05 23:43 49.05147 2.88036 6098 ft 275 kts 353°
2026-05-05 23:43 49.07018 2.87330 6565 ft 279 kts 339°
2026-05-05 23:43 49.08811 2.86175 7193 ft 280 kts 336°
2026-05-05 23:43 49.10605 2.84911 7650 ft 288 kts 335°
2026-05-05 23:44 49.12443 2.83583 8098 ft 296 kts 335°
2026-05-05 23:44 49.14297 2.82248 8635 ft 300 kts 334°
2026-05-05 23:44 49.16199 2.80889 9213 ft 303 kts 335°
2026-05-05 23:44 49.18121 2.79527 9770 ft 306 kts 334°
2026-05-05 23:45 49.20083 2.78144 10150 ft 316 kts 334°
2026-05-05 23:45 49.22143 2.76695 10261 ft 335 kts 334°
2026-05-05 23:45 49.24317 2.75168 10415 ft 352 kts 334°
2026-05-05 23:45 49.26602 2.73567 10608 ft 368 kts 335°
2026-05-05 23:46 49.28967 2.71912 11076 ft 376 kts 335°
2026-05-05 23:46 49.31375 2.70229 11600 ft 382 kts 335°
2026-05-05 23:46 49.33784 2.68543 12118 ft 388 kts 335°
2026-05-05 23:46 49.36262 2.66808 12753 ft 391 kts 335°
2026-05-05 23:47 49.38746 2.65063 13400 ft 394 kts 336°
2026-05-05 23:47 49.41258 2.63300 13952 ft 398 kts 336°
2026-05-05 23:47 49.43803 2.61512 14421 ft 403 kts 336°
2026-05-05 23:47 49.46362 2.59712 14985 ft 405 kts 336°
2026-05-05 23:48 49.48929 2.57902 15584 ft 406 kts 335°
2026-05-05 23:48 49.51506 2.56083 16191 ft 407 kts 335°
2026-05-05 23:48 49.54054 2.54283 16814 ft 408 kts 335°
2026-05-05 23:48 49.56647 2.52448 17353 ft 411 kts 335°
2026-05-05 23:49 49.59259 2.50598 17870 ft 414 kts 335°
2026-05-05 23:49 49.61890 2.48733 18384 ft 416 kts 335°
2026-05-05 23:49 49.64534 2.46855 18844 ft 419 kts 335°
2026-05-05 23:49 49.67195 2.44964 19300 ft 422 kts 335°
2026-05-05 23:50 49.69837 2.43083 19755 ft 424 kts 335°
2026-05-05 23:50 49.72528 2.41166 20196 ft 427 kts 335°
2026-05-05 23:50 49.75241 2.39231 20626 ft 430 kts 335°
2026-05-05 23:50 49.77969 2.37283 21045 ft 433 kts 335°
2026-05-05 23:51 49.80750 2.35426 21451 ft 436 kts 339°
2026-05-05 23:51 49.83601 2.33748 21881 ft 439 kts 340°
2026-05-05 23:51 49.86481 2.32137 22306 ft 442 kts 341°
2026-05-05 23:51 49.89350 2.30541 22733 ft 444 kts 341°
2026-05-05 23:52 49.92274 2.28897 23128 ft 447 kts 341°
2026-05-05 23:52 49.95213 2.27221 23500 ft 451 kts 341°
2026-05-05 23:52 49.98173 2.25514 23799 ft 454 kts 340°
2026-05-05 23:52 50.01107 2.23809 24141 ft 457 kts 340°
2026-05-05 23:53 50.04101 2.22062 24488 ft 459 kts 340°
2026-05-05 23:53 50.07110 2.20303 24823 ft 462 kts 340°
2026-05-05 23:53 50.10126 2.18538 25207 ft 463 kts 340°
2026-05-05 23:53 50.13153 2.16765 25553 ft 466 kts 340°
2026-05-05 23:54 50.16200 2.14978 25794 ft 470 kts 340°
2026-05-05 23:54 50.19246 2.13191 25834 ft 474 kts 340°
2026-05-05 23:54 50.22356 2.11363 25892 ft 481 kts 340°
2026-05-05 23:54 50.25522 2.09499 25892 ft 491 kts 340°
2026-05-05 23:55 50.28748 2.07598 25981 ft 497 kts 340°
2026-05-05 23:55 50.31994 2.05677 26247 ft 500 kts 339°
2026-05-05 23:55 50.35163 2.03453 26637 ft 499 kts 332°
2026-05-05 23:55 50.37173 2.01680 26921 ft 498 kts 329°
2026-05-05 23:56 50.40074 1.98686 27250 ft 500 kts 324°
2026-05-05 23:56 50.42766 1.95240 27744 ft 495 kts 318°
2026-05-05 23:56 50.45353 1.91647 27897 ft 498 kts 318°
2026-05-05 23:56 50.47915 1.88084 27903 ft 498 kts 318°
2026-05-05 23:57 50.50506 1.84494 27904 ft 495 kts 319°
2026-05-05 23:57 50.53089 1.80933 27904 ft 493 kts 319°
2026-05-05 23:57 50.55676 1.77380 27914 ft 495 kts 319°
2026-05-05 23:57 50.58279 1.73808 27923 ft 496 kts 319°
2026-05-05 23:58 50.60883 1.70231 27917 ft 498 kts 319°
2026-05-05 23:58 50.63505 1.66624 27919 ft 500 kts 319°
2026-05-05 23:58 50.66097 1.63051 27921 ft 500 kts 318°
2026-05-05 23:58 50.68710 1.59443 27922 ft 496 kts 318°
2026-05-05 23:59 50.71296 1.55865 27917 ft 493 kts 318°
2026-05-05 23:59 50.73871 1.52297 27922 ft 491 kts 318°
2026-05-05 23:59 50.76449 1.48760 27927 ft 489 kts 320°
2026-05-05 23:59 50.79172 1.45511 27924 ft 490 kts 326°
2026-05-06 00:00 50.82103 1.42717 27943 ft 494 kts 330°
2026-05-06 00:00 50.85124 1.40043 27950 ft 499 kts 330°
2026-05-06 00:00 50.88113 1.37406 27961 ft 498 kts 330°
2026-05-06 00:00 50.91139 1.34724 27961 ft 497 kts 330°
2026-05-06 00:01 50.94150 1.32036 27949 ft 496 kts 330°
2026-05-06 00:01 50.97153 1.29335 27952 ft 495 kts 330°
2026-05-06 00:01 51.00142 1.26632 27952 ft 493 kts 330°
2026-05-06 00:01 51.03128 1.23920 27956 ft 492 kts 330°
2026-05-06 00:02 51.06058 1.21252 27966 ft 491 kts 330°
2026-05-06 00:02 51.09031 1.18541 27960 ft 490 kts 330°
2026-05-06 00:02 51.11984 1.15844 27962 ft 490 kts 329°
2026-05-06 00:02 51.14943 1.13138 27963 ft 490 kts 329°
2026-05-06 00:03 51.17906 1.10425 27964 ft 490 kts 330°
2026-05-06 00:03 51.20869 1.07709 27966 ft 490 kts 329°
2026-05-06 00:03 51.23824 1.04996 27961 ft 490 kts 329°
2026-05-06 00:03 51.26750 1.02306 27961 ft 491 kts 329°
2026-05-06 00:04 51.29713 0.99578 27971 ft 491 kts 329°
2026-05-06 00:04 51.32682 0.96840 27969 ft 492 kts 329°
2026-05-06 00:04 51.35628 0.94120 27979 ft 492 kts 329°
2026-05-06 00:04 51.38597 0.91374 27971 ft 492 kts 329°
2026-05-06 00:05 51.44532 0.85873 27971 ft 491 kts 328°
2026-05-06 00:05 51.47496 0.83118 27972 ft 491 kts 329°
2026-05-06 00:05 51.50419 0.80398 27971 ft 490 kts 328°
2026-05-06 00:06 51.53373 0.77645 27974 ft 490 kts 328°
2026-05-06 00:06 51.56327 0.74888 27976 ft 489 kts 328°
2026-05-06 00:06 51.59240 0.72165 27984 ft 489 kts 328°
2026-05-06 00:06 51.62190 0.69403 27986 ft 489 kts 328°
2026-05-06 00:07 51.65140 0.66638 27984 ft 489 kts 328°
2026-05-06 00:07 51.68082 0.63875 27982 ft 489 kts 328°
2026-05-06 00:07 51.71028 0.61104 27984 ft 489 kts 328°
2026-05-06 00:07 51.73972 0.58330 27983 ft 490 kts 328°
2026-05-06 00:08 51.76914 0.55556 27987 ft 490 kts 328°
2026-05-06 00:08 51.79854 0.52778 27990 ft 490 kts 328°
2026-05-06 00:08 51.82798 0.49993 28002 ft 490 kts 328°
2026-05-06 00:09 51.88654 0.44440 28000 ft 490 kts 327°
2026-05-06 00:09 51.91571 0.41666 27995 ft 489 kts 327°
2026-05-06 00:09 51.94506 0.38872 27994 ft 489 kts 327°
2026-05-06 00:09 51.97456 0.36059 27994 ft 488 kts 327°
2026-05-06 00:10 52.00386 0.33261 27998 ft 488 kts 327°
2026-05-06 00:10 52.06207 0.27689 27998 ft 487 kts 327°
2026-05-06 00:10 52.09137 0.24879 27998 ft 487 kts 327°
2026-05-06 00:11 52.12055 0.22075 28002 ft 487 kts 327°
2026-05-06 00:11 52.17852 0.16492 28003 ft 487 kts 327°
2026-05-06 00:12 52.23699 0.10844 28000 ft 487 kts 327°
2026-05-06 00:12 52.29551 0.05172 28025 ft 488 kts 326°
2026-05-06 00:13 52.35362 -0.00476 28012 ft 489 kts 326°
2026-05-06 00:13 52.41224 -0.06192 28008 ft 489 kts 326°
2026-05-06 00:14 52.47075 -0.11914 28016 ft 489 kts 326°
2026-05-06 00:14 52.52896 -0.17626 28027 ft 489 kts 326°
2026-05-06 00:15 52.58741 -0.23378 28019 ft 489 kts 326°
2026-05-06 00:15 52.64577 -0.29139 28019 ft 488 kts 326°
2026-05-06 00:16 52.70365 -0.34871 28020 ft 487 kts 326°
2026-05-06 00:16 52.76173 -0.40642 28036 ft 486 kts 326°
2026-05-06 00:17 52.81938 -0.46389 28048 ft 486 kts 326°
2026-05-06 00:17 52.87729 -0.52177 28047 ft 485 kts 326°
2026-05-06 00:18 52.93502 -0.57967 28049 ft 484 kts 326°
2026-05-06 00:18 52.99228 -0.63727 28049 ft 484 kts 326°
2026-05-06 00:19 53.04985 -0.69538 28056 ft 483 kts 327°
2026-05-06 00:19 53.10706 -0.75331 28020 ft 483 kts 327°
2026-05-06 00:20 53.16452 -0.81167 28024 ft 482 kts 326°
2026-05-06 00:20 53.22155 -0.86977 28039 ft 482 kts 326°
2026-05-06 00:21 53.27890 -0.92839 28049 ft 482 kts 326°
2026-05-06 00:21 53.33626 -0.98721 28050 ft 483 kts 326°
2026-05-06 00:22 53.39324 -1.04582 28061 ft 483 kts 326°
2026-05-06 00:22 53.45052 -1.10493 28063 ft 482 kts 326°
2026-05-06 00:23 53.50779 -1.16422 28064 ft 482 kts 326°
2026-05-06 00:23 53.56455 -1.22317 28064 ft 482 kts 326°
2026-05-06 00:24 53.62139 -1.28240 28072 ft 481 kts 326°
2026-05-06 00:24 53.67853 -1.34212 28076 ft 481 kts 326°
2026-05-06 00:25 53.73517 -1.40151 28090 ft 481 kts 326°
2026-05-06 00:25 53.79224 -1.46156 28082 ft 481 kts 325°
2026-05-06 00:26 53.84882 -1.52127 28071 ft 481 kts 325°
2026-05-06 00:26 53.90567 -1.58147 28080 ft 480 kts 326°
2026-05-06 00:27 53.96189 -1.64119 28080 ft 478 kts 326°
2026-05-06 00:27 54.01839 -1.70140 28080 ft 477 kts 326°
2026-05-06 00:28 54.07433 -1.76122 28079 ft 476 kts 326°
2026-05-06 00:28 54.13037 -1.82133 28083 ft 475 kts 326°
2026-05-06 00:29 54.18636 -1.88157 28091 ft 475 kts 326°
2026-05-06 00:29 54.24195 -1.94160 28113 ft 475 kts 326°
2026-05-06 00:30 54.29803 -2.00235 28098 ft 476 kts 325°
2026-05-06 00:30 54.35392 -2.06308 28100 ft 477 kts 325°
2026-05-06 00:31 54.41003 -2.12424 28104 ft 477 kts 325°
2026-05-06 00:31 54.46581 -2.18526 28110 ft 477 kts 325°
2026-05-06 00:32 54.52187 -2.24678 28111 ft 477 kts 325°
2026-05-06 00:32 54.57787 -2.30844 28110 ft 477 kts 325°
2026-05-06 00:33 54.63346 -2.36985 28101 ft 476 kts 325°
2026-05-06 00:33 54.68931 -2.43175 28106 ft 475 kts 325°
2026-05-06 00:34 54.74455 -2.49317 28129 ft 475 kts 325°
2026-05-06 00:34 54.80022 -2.55529 28121 ft 474 kts 325°
2026-05-06 00:35 54.85537 -2.61702 28076 ft 474 kts 324°
2026-05-06 00:35 54.91081 -2.67928 28074 ft 474 kts 324°
2026-05-06 00:36 54.96629 -2.74180 28093 ft 474 kts 324°
2026-05-06 00:36 55.02125 -2.80394 28083 ft 473 kts 324°
2026-05-06 00:37 55.07650 -2.86661 28109 ft 472 kts 324°
2026-05-06 00:37 55.13117 -2.92884 28111 ft 471 kts 324°
2026-05-06 00:38 55.18606 -2.99152 28116 ft 471 kts 324°
2026-05-06 00:38 55.24102 -3.05450 28132 ft 471 kts 324°
2026-05-06 00:39 55.29549 -3.11712 28111 ft 471 kts 324°
2026-05-06 00:39 55.35025 -3.18031 28111 ft 470 kts 324°
2026-05-06 00:40 55.40507 -3.24375 28113 ft 470 kts 324°
2026-05-06 00:40 55.45945 -3.30689 28113 ft 470 kts 324°
2026-05-06 00:41 55.51265 -3.37376 28112 ft 467 kts 316°
2026-05-06 00:41 55.55966 -3.45168 28105 ft 464 kts 314°
2026-05-06 00:42 55.60650 -3.53027 28114 ft 463 kts 314°
2026-05-06 00:42 55.65343 -3.60867 28113 ft 462 kts 314°
2026-05-06 00:43 55.69999 -3.68642 28111 ft 462 kts 314°
2026-05-06 00:43 55.74697 -3.76503 28124 ft 462 kts 314°
2026-05-06 00:44 55.79342 -3.84304 28116 ft 461 kts 314°
2026-05-06 00:44 55.83228 -3.90851 28114 ft 461 kts 314°
2026-05-06 00:45 55.87874 -3.98704 28120 ft 461 kts 314°
2026-05-06 00:45 55.92519 -4.06585 28120 ft 461 kts 313°
2026-05-06 00:46 55.97134 -4.14442 28125 ft 460 kts 313°
2026-05-06 00:46 56.01766 -4.22352 28126 ft 460 kts 313°
2026-05-06 00:47 56.06403 -4.30303 28126 ft 460 kts 313°
2026-05-06 00:47 56.11000 -4.38209 28120 ft 460 kts 313°
2026-05-06 00:48 56.15630 -4.46202 28117 ft 460 kts 313°
2026-05-06 00:48 56.20250 -4.54206 28107 ft 460 kts 313°
2026-05-06 00:49 56.24832 -4.62172 28123 ft 460 kts 313°
2026-05-06 00:49 56.29433 -4.70198 28124 ft 461 kts 313°
2026-05-06 00:50 56.34035 -4.78255 28123 ft 460 kts 313°
2026-05-06 00:50 56.38630 -4.86330 28462 ft 464 kts 313°
2026-05-06 00:50 56.40941 -4.90402 28939 ft 462 kts 313°
2026-05-06 00:51 56.43238 -4.94452 29451 ft 459 kts 313°
2026-05-06 00:51 56.45516 -4.98478 29940 ft 457 kts 313°
2026-05-06 00:51 56.47798 -5.02518 30177 ft 460 kts 312°
2026-05-06 00:52 56.52343 -5.10591 30096 ft 457 kts 312°
2026-05-06 00:52 56.56858 -5.18635 30110 ft 454 kts 312°
2026-05-06 00:53 56.61369 -5.26705 30113 ft 455 kts 312°
2026-05-06 00:53 56.65851 -5.34753 30095 ft 456 kts 312°
2026-05-06 00:54 56.70371 -5.42894 30112 ft 457 kts 312°
2026-05-06 00:54 56.74895 -5.51069 30102 ft 458 kts 312°
2026-05-06 00:55 56.79412 -5.59266 30104 ft 457 kts 312°
2026-05-06 00:55 56.83890 -5.67420 30098 ft 456 kts 311°
2026-05-06 00:56 56.88377 -5.75618 30101 ft 455 kts 311°
2026-05-06 00:56 56.92859 -5.83835 30105 ft 455 kts 311°
2026-05-06 00:57 56.97327 -5.92058 30121 ft 454 kts 312°
2026-05-06 00:57 57.01766 -6.00259 30111 ft 455 kts 312°
2026-05-06 00:58 57.06235 -6.08544 30113 ft 456 kts 312°
2026-05-06 00:58 57.10681 -6.16814 30110 ft 457 kts 312°
2026-05-06 00:59 57.15126 -6.25114 30115 ft 457 kts 312°
2026-05-06 00:59 57.19601 -6.33501 30111 ft 458 kts 312°
2026-05-06 01:00 57.24067 -6.41901 30119 ft 458 kts 312°
2026-05-06 01:00 57.28507 -6.50284 30114 ft 457 kts 312°
2026-05-06 01:01 57.32946 -6.58694 30124 ft 456 kts 312°
2026-05-06 01:01 57.37340 -6.67051 30122 ft 455 kts 312°
2026-05-06 01:02 57.41758 -6.75483 30123 ft 454 kts 311°
2026-05-06 01:02 57.46135 -6.83869 30126 ft 454 kts 311°
2026-05-06 01:03 57.50522 -6.92305 30133 ft 453 kts 311°
2026-05-06 01:03 57.54913 -7.00779 30126 ft 453 kts 311°
2026-05-06 01:04 57.59279 -7.09237 30134 ft 452 kts 311°